Meteo Giornale » Osservazioni meteo Danimarca » Billund Lufthavn

ore: 14:23 - Osservazioni Meteo Billund Lufthavn
Lat. 55° 44' N Lon. 9° 10' E Alt. 75 metri s.l.m.

nuvoloso

18 °C

Nuvoloso

Temp. 24 Ore

13 °C

18 °C

Ovest

18.5 Km/h

Dew point 15 °C

Umidità 82 %

Visibilità  10 Km

Il sole sorge alle ore 06:28

Il sole tramonta alle ore 20:18

Data e Ora Cielo e Fenomeni T °C DP °C Um. % Pres. hPa Vis. km Vento km/h
Oggi h: 14:23 nuvoloso Nuvoloso 18 15 82 1013 10 O 18.5
Oggi h: 13:50 coperto_pioggia Pioggia 18 15 82 1013 10 O 22.2
Oggi h: 13:20 molto_nuvoloso Molto Nuvoloso 18 15 82 1013 10 O 22.2
Oggi h: 12:50 nuvoloso Nuvoloso 18 15 82 1013 10 O 16.7
Oggi h: 12:21 nuvoloso Nuvoloso 17 16 93 1013 10 O 16.7
Oggi h: 11:50 nuvoloso_piovaschi Pioggia 18 15 82 1012 10 O 20.3
Oggi h: 11:21 nuvoloso Nuvoloso 17 14 82 1012 10 O/NO 13
Oggi h: 10:50 molto_nuvoloso Molto Nuvoloso 18 15 82 1012 10 O 13
Oggi h: 10:20 molto_nuvoloso Molto Nuvoloso 17 15 88 1012 10 O 13
Oggi h: 09:50 molto_nuvoloso Molto Nuvoloso 17 15 88 1012 10 O 14.8
Oggi h: 09:20 poco_nuvoloso Poco Nuvoloso 17 15 88 1011 10 O 11.1
Oggi h: 08:50 sereno Sereno 16 15 93 1011 10 O 9.3
Oggi h: 08:20 molto_nuvoloso Molto Nuvoloso 15 15 100 1011 10 O/SO 7.4
Oggi h: 07:50 molto_nuvoloso Molto Nuvoloso 14 14 100 1011 10 N 5.5
Oggi h: 07:20 molto_nuvoloso Molto Nuvoloso 13 13 100 1011 10 N 5.5
Oggi h: 06:50 nebbia Nebbia 13 13 100 1010 0.5 N 1.8
Oggi h: 06:20 nebbia Nebbia 13 13 100 1010 0.2 N 3.7
Oggi h: 05:50 nebbia Nebbia 13 13 100 1010 0.6 N 5.5
Oggi h: 05:20 nebbia Nebbia 13 13 100 1010 1 N 5.5
Oggi h: 04:50 nebbia Nebbia 13 13 100 1010 0.4 N 3.7
Oggi h: 04:20 nebbia Banco di nebbia 13 13 100 1010 1 N 5.5
Oggi h: 03:50 foschia Foschia 14 14 100 1010 5 O 9.3
Oggi h: 03:20 molto_nuvoloso Molto Nuvoloso 14 14 100 1009 9 O 9.3
Oggi h: 02:50 foschia Foschia 14 14 100 1009 2 N 5.5
Oggi h: 02:20 nebbia Nebbia 14 14 100 1009 0.45 O 7.4
Oggi h: 01:50 nebbia Nebbia 15 15 100 1009 0.2 O 9.3
Oggi h: 01:20 nebbia Nebbia 15 15 100 1009 0.6 O 11.1
Oggi h: 00:50 molto_nuvoloso Molto Nuvoloso 15 15 100 1008 10 N 5.5
Oggi h: 00:20 molto_nuvoloso Molto Nuvoloso 15 14 93 1008 10 N 3.7
Ieri h: 23:50 molto_nuvoloso Molto Nuvoloso 15 15 100 1008 10 N 5.5
Ieri h: 23:20 molto_nuvoloso Molto Nuvoloso 15 15 100 1008 10 S/SO 7.4
Ieri h: 22:50 nuvoloso_piovaschi Pioggia 15 15 100 1008 5 N 3.7
Ieri h: 22:20 nuvoloso_piovaschi Pioggia 15 15 100 1008 10 N 5.5
Ieri h: 21:50 molto_nuvoloso Molto Nuvoloso 15 15 100 1008 10 N 5.5
Ieri h: 21:20 molto_nuvoloso Molto Nuvoloso 15 15 100 1007 10 SO 7.4
Ieri h: 20:50 molto_nuvoloso Molto Nuvoloso 16 15 93 1007 10 N 5.5
Ieri h: 20:20 nuvoloso Nuvoloso 16 15 93 1007 10 N 5.5
Ieri h: 19:50 nuvoloso Nuvoloso 16 15 93 1007 10 N 3.7
Ieri h: 19:20 coperto_pioggia Pioggia 16 15 93 1006 10 N 3.7
Ieri h: 18:50 nuvoloso_piovaschi Pioggia 16 15 93 1006 6 S/SE 14.8
Ieri h: 18:20 nuvoloso_piovaschi Pioggia 16 15 93 1006 2 N 14.8
Ieri h: 17:50 molto_nuvoloso Molto Nuvoloso 18 15 82 1006 10 N 1.8
Ieri h: 17:21 nuvoloso_piovaschi Pioggia 17 15 88 1006 10 N 3.7
Ieri h: 16:50 nuvoloso_piovaschi Pioggia 16 15 93 1006 10 N 1.8
Ieri h: 16:21 nuvoloso_piovaschi Pioggia 16 16 100 1006 10 N 5.5
Ieri h: 15:50 nuvoloso_piovaschi Pioggia 16 15 93 1006 10 N 5.5
Ieri h: 15:32 nuvoloso_piovaschi Pioggia 16 15 93 1006 10 N 5.5
Ieri h: 15:24 molto_nuvoloso Molto Nuvoloso 16 15 93 1006 10 O 9.3
Ieri h: 14:50 nuvoloso_piovaschi Pioggia 18 15 82 1006 10 S/SO 18.5